Time,TemperatureF,DewpointF,PressureIn,WindDirection,WindDirectionDegrees,WindSpeedMPH,WindSpeedGustMPH,Humidity,HourlyPrecipIn,Conditions,Clouds,dailyrainin,SoftwareType,DateUTC
2013-01-01 00:00:00,47.1,32.0,30.16,NE,53,0.0,0.0,47,0.00,,---,0.00,cosweather0.1e,2013-01-01 08:00:00,
2013-01-01 00:05:00,47.3,32.0,30.16,NE,53,0.0,0.0,47,0.00,,---,0.00,cosweather0.1e,2013-01-01 08:05:00,
2013-01-01 00:10:00,47.5,32.0,30.16,NE,43,0.0,0.0,47,0.00,,---,0.00,cosweather0.1e,2013-01-01 08:10:00,
2013-01-01 00:15:00,47.7,32.0,30.16,NE,42,0.0,0.0,48,0.00,,---,0.00,cosweather0.1e,2013-01-01 08:15:00,
2013-01-01 00:20:00,47.7,32.0,30.16,NE,42,0.0,0.0,47,0.00,,---,0.00,cosweather0.1e,2013-01-01 08:20:00,
2013-01-01 00:25:00,47.5,32.0,30.16,NE,42,0.0,0.0,47,0.00,,---,0.00,cosweather0.1e,2013-01-01 08:25:00,
2013-01-01 00:30:00,47.3,32.0,30.12,NE,42,0.0,0.0,48,0.00,,---,0.00,cosweather0.1e,2013-01-01 08:30:00,
2013-01-01 00:35:00,47.3,32.0,30.12,NE,41,0.0,0.0,47,0.00,,---,0.00,cosweather0.1e,2013-01-01 08:35:00,
2013-01-01 00:40:00,47.3,32.0,30.12,NE,41,0.0,0.0,47,0.00,,---,0.00,cosweather0.1e,2013-01-01 08:40:00,
2013-01-01 00:45:00,47.3,32.0,30.12,NE,41,0.0,0.0,48,0.00,,---,0.00,cosweather0.1e,2013-01-01 08:45:00,
2013-01-01 00:50:00,47.1,32.0,30.12,NE,41,0.0,0.0,48,0.00,,---,0.00,cosweather0.1e,2013-01-01 08:50:00,
2013-01-01 00:55:00,47.1,32.0,30.12,NE,41,0.0,0.0,48,0.00,,---,0.00,cosweather0.1e,2013-01-01 08:55:00,
2013-01-01 01:00:00,47.1,32.0,30.12,NNE,20,0.0,0.0,48,0.00,,---,0.00,cosweather0.1e,2013-01-01 09:00:00,
2013-01-01 01:05:00,47.1,32.0,30.12,NNE,20,0.0,0.0,48,0.00,,---,0.00,cosweather0.1e,2013-01-01 09:05:00,
2013-01-01 01:10:00,47.1,32.0,30.12,NNE,20,0.0,0.0,48,0.00,,---,0.00,cosweather0.1e,2013-01-01 09:10:00,
2013-01-01 01:15:00,46.9,32.0,30.12,SW,229,0.0,0.0,48,0.00,,---,0.00,cosweather0.1e,2013-01-01 09:15:00,
2013-01-01 01:20:00,46.4,32.0,30.12,North,353,0.0,0.0,48,0.00,,---,0.00,cosweather0.1e,2013-01-01 09:20:00,
2013-01-01 01:25:00,46.2,32.0,30.12,ENE,58,0.0,0.0,48,0.00,,---,0.00,cosweather0.1e,2013-01-01 09:25:00,
2013-01-01 01:30:00,46.0,32.0,30.16,ENE,58,0.0,0.0,49,0.00,,---,0.00,cosweather0.1e,2013-01-01 09:30:00,
2013-01-01 01:35:00,45.9,32.0,30.16,ENE,58,0.0,0.0,49,0.00,,---,0.00,cosweather0.1e,2013-01-01 09:35:00,
2013-01-01 01:40:00,45.9,32.0,30.16,ENE,58,0.0,0.0,49,0.00,,---,0.00,cosweather0.1e,2013-01-01 09:40:00,
2013-01-01 01:45:00,46.0,32.0,30.16,ENE,58,0.0,0.0,49,0.00,,---,0.00,cosweather0.1e,2013-01-01 09:45:00,
2013-01-01 01:50:00,46.0,32.0,30.16,ENE,58,0.0,0.0,49,0.00,,---,0.00,cosweather0.1e,2013-01-01 09:50:00,
2013-01-01 01:55:00,46.0,32.0,30.16,ENE,58,0.0,0.0,49,0.00,,---,0.00,cosweather0.1e,2013-01-01 09:55:00,
2013-01-01 02:00:00,46.0,32.0,30.16,ENE,58,0.0,0.0,49,0.00,,---,0.00,cosweather0.1e,2013-01-01 10:00:00,
2013-01-01 02:05:00,46.2,32.0,30.16,ENE,58,0.0,0.0,49,0.00,,---,0.00,cosweather0.1e,2013-01-01 10:05:00,
2013-01-01 02:10:00,46.0,32.0,30.16,ENE,58,0.0,0.0,49,0.00,,---,0.00,cosweather0.1e,2013-01-01 10:10:00,
2013-01-01 02:15:00,46.0,32.0,30.16,ENE,58,0.0,0.0,49,0.00,,---,0.00,cosweather0.1e,2013-01-01 10:15:00,
2013-01-01 02:20:00,46.0,32.0,30.16,ENE,60,0.0,0.0,49,0.00,,---,0.00,cosweather0.1e,2013-01-01 10:20:00,
2013-01-01 02:25:00,46.0,32.0,30.16,ENE,61,0.0,0.0,49,0.00,,---,0.00,cosweather0.1e,2013-01-01 10:25:00,
2013-01-01 02:30:00,46.0,32.0,30.16,NE,35,0.0,0.0,49,0.00,,---,0.00,cosweather0.1e,2013-01-01 10:30:00,
2013-01-01 02:35:00,45.9,32.0,30.16,NNE,14,0.0,0.0,49,0.00,,---,0.00,cosweather0.1e,2013-01-01 10:35:00,
2013-01-01 02:40:00,45.9,32.0,30.16,NNE,14,0.0,0.0,49,0.00,,---,0.00,cosweather0.1e,2013-01-01 10:40:00,
2013-01-01 02:45:00,45.7,32.0,30.12,NNE,14,0.0,0.0,49,0.00,,---,0.00,cosweather0.1e,2013-01-01 10:45:00,
2013-01-01 02:50:00,45.5,32.0,30.12,North,0,0.0,0.0,50,0.00,,---,0.00,cosweather0.1e,2013-01-01 10:50:00,
2013-01-01 02:55:00,45.5,32.0,30.12,North,0,0.0,0.0,50,0.00,,---,0.00,cosweather0.1e,2013-01-01 10:55:00,
2013-01-01 03:00:00,45.5,32.0,30.16,North,0,0.0,0.0,50,0.00,,---,0.00,cosweather0.1e,2013-01-01 11:00:00,
2013-01-01 03:05:00,45.3,32.0,30.16,North,0,0.0,0.0,50,0.00,,---,0.00,cosweather0.1e,2013-01-01 11:05:00,
2013-01-01 03:10:00,45.1,32.0,30.16,North,0,0.0,0.0,50,0.00,,---,0.00,cosweather0.1e,2013-01-01 11:10:00,
2013-01-01 03:15:00,45.0,32.0,30.16,North,0,0.0,0.0,50,0.00,,---,0.00,cosweather0.1e,2013-01-01 11:15:00,
2013-01-01 03:20:00,45.1,32.0,30.16,North,11,0.0,2.7,50,0.00,,---,0.00,cosweather0.1e,2013-01-01 11:20:00,
2013-01-01 03:25:00,44.8,32.0,30.16,NE,39,0.0,3.1,50,0.00,,---,0.00,cosweather0.1e,2013-01-01 11:25:00,
2013-01-01 03:30:00,44.8,32.0,30.12,NE,42,0.0,2.7,50,0.00,,---,0.00,cosweather0.1e,2013-01-01 11:30:00,
2013-01-01 03:35:00,45.1,32.0,30.12,East,82,0.0,2.7,51,0.00,,---,0.00,cosweather0.1e,2013-01-01 11:35:00,
2013-01-01 03:40:00,45.5,32.0,30.12,ENE,75,0.0,0.0,50,0.00,,---,0.00,cosweather0.1e,2013-01-01 11:40:00,
2013-01-01 03:45:00,45.9,32.0,30.12,ENE,75,0.0,0.0,51,0.00,,---,0.00,cosweather0.1e,2013-01-01 11:45:00,
2013-01-01 03:50:00,46.0,32.0,30.12,ENE,75,0.0,0.0,51,0.00,,---,0.00,cosweather0.1e,2013-01-01 11:50:00,
2013-01-01 03:55:00,46.2,32.0,30.12,ENE,75,0.0,0.0,51,0.00,,---,0.00,cosweather0.1e,2013-01-01 11:55:00,
2013-01-01 04:00:00,46.4,32.0,30.16,ENE,75,0.0,0.0,51,0.00,,---,0.00,cosweather0.1e,2013-01-01 12:00:00,
2013-01-01 04:05:00,46.4,32.0,30.16,ENE,75,0.0,0.0,51,0.00,,---,0.00,cosweather0.1e,2013-01-01 12:05:00,
2013-01-01 04:11:00,46.4,32.0,30.16,ENE,75,0.0,0.0,51,0.00,,---,0.00,cosweather0.1e,2013-01-01 12:11:00,
2013-01-01 04:15:00,46.4,32.0,30.12,ENE,75,0.0,0.0,52,0.00,,---,0.00,cosweather0.1e,2013-01-01 12:15:00,
2013-01-01 04:21:00,46.6,32.0,30.12,ENE,75,0.0,0.0,52,0.00,,---,0.00,cosweather0.1e,2013-01-01 12:21:00,
2013-01-01 04:26:00,46.6,32.0,30.12,ENE,75,0.0,0.0,53,0.00,,---,0.00,cosweather0.1e,2013-01-01 12:26:00,
2013-01-01 04:31:00,46.4,32.0,30.16,SW,227,0.0,0.0,53,0.00,,---,0.00,cosweather0.1e,2013-01-01 12:31:00,
2013-01-01 04:36:00,46.2,32.0,30.16,SW,226,0.0,0.0,54,0.00,,---,0.00,cosweather0.1e,2013-01-01 12:36:00,
2013-01-01 04:41:00,45.9,32.0,30.16,SE,128,0.0,0.0,53,0.00,,---,0.00,cosweather0.1e,2013-01-01 12:41:00,
2013-01-01 04:46:00,45.5,32.0,30.16,ENE,72,0.0,0.0,54,0.00,,---,0.00,cosweather0.1e,2013-01-01 12:46:00,
2013-01-01 04:51:00,45.5,32.0,30.16,ENE,72,0.0,0.0,55,0.00,,---,0.00,cosweather0.1e,2013-01-01 12:51:00,
2013-01-01 04:56:00,45.7,32.0,30.16,ENE,72,0.0,0.0,55,0.00,,---,0.00,cosweather0.1e,2013-01-01 12:56:00,
2013-01-01 05:01:00,45.9,32.0,30.12,ENE,72,0.0,0.0,55,0.00,,---,0.00,cosweather0.1e,2013-01-01 13:01:00,
2013-01-01 05:06:00,46.0,32.0,30.12,ENE,72,0.0,0.0,55,0.00,,---,0.00,cosweather0.1e,2013-01-01 13:06:00,
2013-01-01 05:11:00,46.0,32.0,30.12,SSE,164,0.0,0.0,56,0.00,,---,0.00,cosweather0.1e,2013-01-01 13:11:00,
2013-01-01 05:16:00,45.7,32.0,30.12,ESE,105,0.0,0.0,56,0.00,,---,0.00,cosweather0.1e,2013-01-01 13:16:00,
2013-01-01 05:21:00,45.9,32.0,30.12,East,83,0.0,0.0,56,0.00,,---,0.00,cosweather0.1e,2013-01-01 13:21:00,
2013-01-01 05:26:00,45.9,32.0,30.12,ENE,77,0.0,0.0,56,0.00,,---,0.00,cosweather0.1e,2013-01-01 13:26:00,
2013-01-01 05:31:00,45.9,32.0,30.12,ENE,77,0.0,0.0,56,0.00,,---,0.00,cosweather0.1e,2013-01-01 13:31:00,
2013-01-01 05:36:00,46.0,32.0,30.12,SSW,213,0.0,0.0,56,0.00,,---,0.00,cosweather0.1e,2013-01-01 13:36:00,
2013-01-01 05:41:00,45.9,32.0,30.12,SW,219,0.0,4.0,56,0.00,,---,0.00,cosweather0.1e,2013-01-01 13:41:00,
2013-01-01 05:46:00,45.9,32.0,30.12,West,265,0.0,0.0,56,0.00,,---,0.00,cosweather0.1e,2013-01-01 13:46:00,
2013-01-01 05:51:00,45.9,32.0,30.12,SSW,210,0.0,0.0,56,0.00,,---,0.00,cosweather0.1e,2013-01-01 13:51:00,
2013-01-01 05:56:00,45.9,32.0,30.12,ENE,61,0.0,2.7,56,0.00,,---,0.00,cosweather0.1e,2013-01-01 13:56:00,
2013-01-01 06:01:00,45.9,32.0,30.12,SW,222,0.0,3.6,56,0.00,,---,0.00,cosweather0.1e,2013-01-01 14:01:00,
2013-01-01 06:06:00,45.9,32.0,30.12,South,186,0.0,0.0,56,0.00,,---,0.00,cosweather0.1e,2013-01-01 14:06:00,
2013-01-01 06:11:00,45.9,32.0,30.12,ESE,117,0.0,0.0,56,0.00,,---,0.00,cosweather0.1e,2013-01-01 14:11:00,
2013-01-01 06:16:00,45.7,32.0,30.12,WSW,241,0.0,2.2,56,0.00,,---,0.00,cosweather0.1e,2013-01-01 14:16:00,
2013-01-01 06:21:00,45.7,32.0,30.12,SW,222,0.0,0.0,56,0.00,,---,0.00,cosweather0.1e,2013-01-01 14:21:00,
2013-01-01 06:26:00,45.5,32.0,30.12,SW,230,0.0,0.0,56,0.00,,---,0.00,cosweather0.1e,2013-01-01 14:26:00,
2013-01-01 06:31:00,45.5,32.0,30.16,ESE,103,0.0,0.0,57,0.00,,---,0.00,cosweather0.1e,2013-01-01 14:31:00,
2013-01-01 06:36:00,45.5,32.0,30.16,NE,48,0.0,0.0,57,0.00,,---,0.00,cosweather0.1e,2013-01-01 14:36:00,
2013-01-01 06:41:00,45.7,32.0,30.16,NE,48,0.0,0.0,57,0.00,,---,0.00,cosweather0.1e,2013-01-01 14:41:00,
2013-01-01 06:46:00,45.7,32.0,30.16,ENE,69,0.0,3.6,57,0.00,,---,0.00,cosweather0.1e,2013-01-01 14:46:00,
2013-01-01 06:51:00,45.3,32.0,30.16,East,82,0.0,0.0,57,0.00,,---,0.00,cosweather0.1e,2013-01-01 14:51:00,
2013-01-01 06:56:00,45.3,32.0,30.16,ENE,70,0.0,0.0,57,0.00,,---,0.00,cosweather0.1e,2013-01-01 14:56:00,
2013-01-01 07:01:00,45.3,32.0,30.16,ENE,70,0.0,0.0,57,0.00,,---,0.00,cosweather0.1e,2013-01-01 15:01:00,
2013-01-01 07:06:00,45.3,32.0,30.16,ENE,70,0.0,0.0,57,0.00,,---,0.00,cosweather0.1e,2013-01-01 15:06:00,
2013-01-01 07:11:00,45.1,32.0,30.16,ENE,70,0.0,0.0,57,0.00,,---,0.00,cosweather0.1e,2013-01-01 15:11:00,
2013-01-01 07:16:00,45.1,32.0,30.16,North,2,0.0,0.0,57,0.00,,---,0.00,cosweather0.1e,2013-01-01 15:16:00,
2013-01-01 07:21:00,45.0,32.0,30.16,NNE,16,0.0,0.0,57,0.00,,---,0.00,cosweather0.1e,2013-01-01 15:21:00,
2013-01-01 07:26:00,45.1,32.0,30.16,NNE,16,0.0,0.0,58,0.00,,---,0.00,cosweather0.1e,2013-01-01 15:26:00,
2013-01-01 07:31:00,45.1,32.0,30.16,North,2,0.0,0.0,57,0.00,,---,0.00,cosweather0.1e,2013-01-01 15:31:00,
2013-01-01 07:36:00,45.0,32.0,30.16,NNE,33,0.0,0.0,57,0.00,,---,0.00,cosweather0.1e,2013-01-01 15:36:00,
2013-01-01 07:41:00,44.6,32.0,30.16,NE,34,0.0,0.0,57,0.00,,---,0.00,cosweather0.1e,2013-01-01 15:41:00,
2013-01-01 07:46:00,44.2,32.0,30.16,NNE,15,0.0,0.0,58,0.00,,---,0.00,cosweather0.1e,2013-01-01 15:46:00,
2013-01-01 07:51:00,44.2,32.0,30.16,NNE,17,0.0,0.0,59,0.00,,---,0.00,cosweather0.1e,2013-01-01 15:51:00,
2013-01-01 07:56:00,44.6,32.0,30.16,NNE,17,0.0,0.0,59,0.00,,---,0.00,cosweather0.1e,2013-01-01 15:56:00,
2013-01-01 08:01:00,44.6,32.0,30.16,NNE,17,0.0,0.0,59,0.00,,---,0.00,cosweather0.1e,2013-01-01 16:01:00,
2013-01-01 08:06:00,44.6,32.0,30.16,NNE,17,0.0,0.0,59,0.00,,---,0.00,cosweather0.1e,2013-01-01 16:06:00,
2013-01-01 08:11:00,44.6,32.0,30.16,NNE,33,0.0,0.0,59,0.00,,---,0.00,cosweather0.1e,2013-01-01 16:11:00,
2013-01-01 08:16:00,44.6,32.0,30.16,NNE,33,0.0,0.0,59,0.00,,---,0.00,cosweather0.1e,2013-01-01 16:16:00,
2013-01-01 08:21:00,44.8,32.0,30.16,NNE,33,0.0,0.0,60,0.00,,---,0.00,cosweather0.1e,2013-01-01 16:21:00,
2013-01-01 08:26:00,44.8,32.0,30.16,NNE,33,0.0,0.0,60,0.00,,---,0.00,cosweather0.1e,2013-01-01 16:26:00,
2013-01-01 08:31:00,44.8,32.0,30.16,ENE,67,0.0,0.0,60,0.00,,---,0.00,cosweather0.1e,2013-01-01 16:31:00,
2013-01-01 08:36:00,44.8,32.0,30.16,East,90,0.0,2.7,61,0.00,,---,0.00,cosweather0.1e,2013-01-01 16:36:00,
2013-01-01 08:41:00,45.1,32.0,30.16,ESE,123,0.0,0.0,61,0.00,,---,0.00,cosweather0.1e,2013-01-01 16:41:00,
2013-01-01 08:46:00,45.3,32.0,30.16,East,101,0.0,5.4,61,0.00,,---,0.00,cosweather0.1e,2013-01-01 16:46:00,
2013-01-01 08:51:00,45.5,33.8,30.16,SSW,198,0.0,2.2,60,0.00,,---,0.00,cosweather0.1e,2013-01-01 16:51:00,
2013-01-01 08:56:00,45.7,33.8,30.16,ENE,57,0.0,3.6,60,0.00,,---,0.00,cosweather0.1e,2013-01-01 16:56:00,
2013-01-01 09:01:00,45.7,33.8,30.16,NE,38,0.0,4.0,59,0.00,,---,0.00,cosweather0.1e,2013-01-01 17:01:00,
2013-01-01 09:07:00,45.7,33.8,30.16,East,88,0.0,6.7,59,0.00,,---,0.00,cosweather0.1e,2013-01-01 17:07:00,
2013-01-01 09:11:00,45.5,32.0,30.16,NE,51,0.0,6.3,58,0.00,,---,0.00,cosweather0.1e,2013-01-01 17:11:00,
2013-01-01 09:17:00,45.5,33.8,30.20,ENE,62,0.0,5.4,60,0.00,,---,0.00,cosweather0.1e,2013-01-01 17:17:00,
2013-01-01 09:22:00,45.5,33.8,30.20,NNE,25,0.0,6.3,60,0.00,,---,0.00,cosweather0.1e,2013-01-01 17:22:00,
2013-01-01 09:27:00,45.5,33.8,30.20,NE,49,0.0,3.1,60,0.00,,---,0.00,cosweather0.1e,2013-01-01 17:27:00,
2013-01-01 09:32:00,45.7,33.8,30.20,NE,49,0.0,4.0,60,0.00,,---,0.00,cosweather0.1e,2013-01-01 17:32:00,
2013-01-01 09:37:00,46.2,33.8,30.20,SW,219,0.0,3.6,60,0.00,,---,0.00,cosweather0.1e,2013-01-01 17:37:00,
2013-01-01 09:42:00,46.8,33.8,30.20,SSE,163,0.0,0.0,60,0.00,,---,0.00,cosweather0.1e,2013-01-01 17:42:00,
2013-01-01 09:47:00,47.1,33.8,30.20,SSE,168,0.0,0.0,60,0.00,,---,0.00,cosweather0.1e,2013-01-01 17:47:00,
2013-01-01 09:52:00,47.3,35.6,30.20,SSE,155,0.0,3.1,60,0.00,,---,0.00,cosweather0.1e,2013-01-01 17:52:00,
2013-01-01 09:57:00,47.7,35.6,30.20,SSE,161,0.0,3.6,60,0.00,,---,0.00,cosweather0.1e,2013-01-01 17:57:00,
2013-01-01 10:02:00,48.2,33.8,30.20,SW,233,0.0,2.7,59,0.00,,---,0.00,cosweather0.1e,2013-01-01 18:02:00,
2013-01-01 10:07:00,48.2,33.8,30.20,South,179,0.0,3.6,59,0.00,,---,0.00,cosweather0.1e,2013-01-01 18:07:00,
2013-01-01 10:12:00,48.7,33.8,30.20,SW,219,0.0,4.9,57,0.00,,---,0.00,cosweather0.1e,2013-01-01 18:12:00,
2013-01-01 10:17:00,48.9,33.8,30.20,SW,224,0.0,4.0,57,0.00,,---,0.00,cosweather0.1e,2013-01-01 18:17:00,
2013-01-01 10:22:00,49.5,33.8,30.20,SSW,194,0.0,3.1,55,0.00,,---,0.00,cosweather0.1e,2013-01-01 18:22:00,
2013-01-01 10:27:00,49.8,35.6,30.20,SSE,160,0.0,0.0,56,0.00,,---,0.00,cosweather0.1e,2013-01-01 18:27:00,
2013-01-01 10:32:00,50.4,33.8,30.20,SSW,205,0.0,5.8,54,0.00,,---,0.00,cosweather0.1e,2013-01-01 18:32:00,
2013-01-01 10:37:00,50.5,33.8,30.20,South,188,0.0,5.4,54,0.00,,---,0.00,cosweather0.1e,2013-01-01 18:37:00,
2013-01-01 10:42:00,51.3,35.6,30.20,South,183,0.0,0.0,54,0.00,,---,0.00,cosweather0.1e,2013-01-01 18:42:00,
2013-01-01 10:47:00,51.8,35.6,30.16,SSE,147,0.0,2.7,54,0.00,,---,0.00,cosweather0.1e,2013-01-01 18:47:00,
2013-01-01 10:52:00,52.7,37.4,30.16,ESE,115,0.0,2.7,53,0.00,,---,0.00,cosweather0.1e,2013-01-01 18:52:00,
2013-01-01 10:57:00,53.2,37.4,30.16,East,97,0.0,3.1,53,0.00,,---,0.00,cosweather0.1e,2013-01-01 18:57:00,
2013-01-01 11:02:00,53.1,35.6,30.16,ESE,114,0.0,0.0,50,0.00,,---,0.00,cosweather0.1e,2013-01-01 19:02:00,
2013-01-01 11:07:00,53.4,35.6,30.16,East,94,0.0,2.7,50,0.00,,---,0.00,cosweather0.1e,2013-01-01 19:07:00,
2013-01-01 11:12:00,53.8,33.8,30.16,ENE,66,0.0,3.6,48,0.00,,---,0.00,cosweather0.1e,2013-01-01 19:12:00,
2013-01-01 11:17:00,54.3,35.6,30.16,SSE,150,0.0,0.0,49,0.00,,---,0.00,cosweather0.1e,2013-01-01 19:17:00,
2013-01-01 11:22:00,54.5,35.6,30.16,NW,304,0.0,5.4,48,0.00,,---,0.00,cosweather0.1e,2013-01-01 19:22:00,
2013-01-01 11:27:00,54.5,35.6,30.16,SSW,213,0.0,3.6,46,0.00,,---,0.00,cosweather0.1e,2013-01-01 19:27:00,
2013-01-01 11:32:00,55.4,33.8,30.16,WNW,300,0.0,4.0,45,0.00,,---,0.00,cosweather0.1e,2013-01-01 19:32:00,
2013-01-01 11:37:00,55.8,33.8,30.16,SW,234,0.0,3.1,45,0.00,,---,0.00,cosweather0.1e,2013-01-01 19:37:00,
2013-01-01 11:42:00,56.3,35.6,30.16,WNW,295,0.0,4.0,45,0.00,,---,0.00,cosweather0.1e,2013-01-01 19:42:00,
2013-01-01 11:47:00,56.1,32.0,30.16,NNW,333,0.0,3.1,40,0.00,,---,0.00,cosweather0.1e,2013-01-01 19:47:00,
2013-01-01 11:52:00,55.9,32.0,30.16,North,350,0.0,6.3,40,0.00,,---,0.00,cosweather0.1e,2013-01-01 19:52:00,
2013-01-01 11:57:00,55.9,32.0,30.16,SE,130,0.0,0.0,41,0.00,,---,0.00,cosweather0.1e,2013-01-01 19:57:00,
2013-01-01 12:02:00,56.3,33.8,30.16,NNW,342,0.0,4.0,40,0.00,,---,0.00,cosweather0.1e,2013-01-01 20:02:00,
2013-01-01 12:07:00,56.5,33.8,30.16,NNE,28,0.0,5.8,40,0.00,,---,0.00,cosweather0.1e,2013-01-01 20:07:00,
2013-01-01 12:12:00,55.8,32.0,30.16,East,87,0.0,8.7,40,0.00,,---,0.00,cosweather0.1e,2013-01-01 20:12:00,
2013-01-01 12:17:00,54.3,32.0,30.12,NNW,333,0.0,5.8,43,0.00,,---,0.00,cosweather0.1e,2013-01-01 20:17:00,
2013-01-01 12:22:00,54.1,33.8,30.12,ENE,61,0.0,12.3,46,0.00,,---,0.00,cosweather0.1e,2013-01-01 20:22:00,
2013-01-01 12:27:00,54.0,33.8,30.12,NNE,18,0.0,6.3,46,0.00,,---,0.00,cosweather0.1e,2013-01-01 20:27:00,
2013-01-01 12:32:00,53.8,33.8,30.12,East,86,0.0,13.2,46,0.00,,---,0.00,cosweather0.1e,2013-01-01 20:32:00,
2013-01-01 12:37:00,54.1,33.8,30.12,East,89,0.0,12.8,46,0.00,,---,0.00,cosweather0.1e,2013-01-01 20:37:00,
2013-01-01 12:42:00,54.0,33.8,30.12,North,0,0.0,4.9,46,0.00,,---,0.00,cosweather0.1e,2013-01-01 20:42:00,
2013-01-01 12:47:00,54.0,33.8,30.12,ENE,72,0.0,8.1,46,0.00,,---,0.00,cosweather0.1e,2013-01-01 20:47:00,
2013-01-01 12:52:00,54.9,35.6,30.12,North,3,0.0,8.1,46,0.00,,---,0.00,cosweather0.1e,2013-01-01 20:52:00,
2013-01-01 12:57:00,55.2,33.8,30.12,NE,54,0.0,10.1,45,0.00,,---,0.00,cosweather0.1e,2013-01-01 20:57:00,
2013-01-01 13:02:00,54.9,32.0,30.12,East,83,0.0,8.1,42,0.00,,---,0.00,cosweather0.1e,2013-01-01 21:02:00,
2013-01-01 13:07:00,54.1,32.0,30.12,ENE,64,0.0,4.9,44,0.00,,---,0.00,cosweather0.1e,2013-01-01 21:07:00,
2013-01-01 13:12:00,54.3,32.0,30.12,East,79,0.0,12.8,44,0.00,,---,0.00,cosweather0.1e,2013-01-01 21:12:00,
2013-01-01 13:17:00,54.0,32.0,30.12,ENE,63,0.0,13.2,43,0.00,,---,0.00,cosweather0.1e,2013-01-01 21:17:00,
2013-01-01 13:22:00,53.6,32.0,30.12,NNE,18,0.0,7.6,44,0.00,,---,0.00,cosweather0.1e,2013-01-01 21:22:00,
2013-01-01 13:29:00,53.6,32.0,30.12,NE,38,0.0,12.3,44,0.00,,---,0.00,cosweather0.1e,2013-01-01 21:29:00,
2013-01-01 13:34:00,53.4,32.0,30.12,ENE,70,0.0,15.9,45,0.00,,---,0.00,cosweather0.1e,2013-01-01 21:34:00,
2013-01-01 13:39:00,53.6,32.0,30.12,ENE,76,0.0,8.3,45,0.00,,---,0.00,cosweather0.1e,2013-01-01 21:39:00,
2013-01-01 13:44:00,54.3,32.0,30.12,ENE,76,0.0,15.4,44,0.00,,---,0.00,cosweather0.1e,2013-01-01 21:44:00,
2013-01-01 13:49:00,54.3,32.0,30.12,ENE,78,0.0,4.0,43,0.00,,---,0.00,cosweather0.1e,2013-01-01 21:49:00,
2013-01-01 13:54:00,54.5,32.0,30.12,ENE,58,0.0,10.1,42,0.00,,---,0.00,cosweather0.1e,2013-01-01 21:54:00,
2013-01-01 13:59:00,54.9,32.0,30.12,East,92,0.0,4.0,42,0.00,,---,0.00,cosweather0.1e,2013-01-01 21:59:00,
2013-01-01 14:04:00,54.9,32.0,30.12,ESE,112,0.0,8.1,41,0.00,,---,0.00,cosweather0.1e,2013-01-01 22:04:00,
2013-01-01 14:09:00,54.9,32.0,30.12,NNE,26,0.0,10.5,40,0.00,,---,0.00,cosweather0.1e,2013-01-01 22:09:00,
2013-01-01 14:14:00,54.5,32.0,30.12,ENE,57,0.0,18.3,40,0.00,,---,0.00,cosweather0.1e,2013-01-01 22:14:00,
2013-01-01 14:19:00,54.1,32.0,30.12,NE,53,0.0,11.4,40,0.00,,---,0.00,cosweather0.1e,2013-01-01 22:19:00,
2013-01-01 14:24:00,54.0,32.0,30.12,NE,54,0.0,8.1,40,0.00,,---,0.00,cosweather0.1e,2013-01-01 22:24:00,
2013-01-01 14:29:00,54.1,32.0,30.12,East,85,0.0,8.3,41,0.00,,---,0.00,cosweather0.1e,2013-01-01 22:29:00,
2013-01-01 14:34:00,54.3,32.0,30.12,ENE,66,0.0,8.3,40,0.00,,---,0.00,cosweather0.1e,2013-01-01 22:34:00,
2013-01-01 14:39:00,54.5,32.0,30.12,NNE,28,0.0,10.1,41,0.00,,---,0.00,cosweather0.1e,2013-01-01 22:39:00,
2013-01-01 14:44:00,54.5,32.0,30.12,ENE,63,0.0,10.1,40,0.00,,---,0.00,cosweather0.1e,2013-01-01 22:44:00,
2013-01-01 14:49:00,54.5,32.0,30.12,NNE,21,0.0,8.3,40,0.00,,---,0.00,cosweather0.1e,2013-01-01 22:49:00,
2013-01-01 14:54:00,54.5,32.0,30.12,NE,42,0.0,15.0,40,0.00,,---,0.00,cosweather0.1e,2013-01-01 22:54:00,
2013-01-01 14:59:00,54.5,32.0,30.12,ENE,59,0.0,6.3,40,0.00,,---,0.00,cosweather0.1e,2013-01-01 22:59:00,
2013-01-01 15:04:00,54.5,32.0,30.12,ENE,67,0.0,8.1,40,0.00,,---,0.00,cosweather0.1e,2013-01-01 23:04:00,
2013-01-01 15:09:00,54.5,32.0,30.12,East,97,0.0,9.6,40,0.00,,---,0.00,cosweather0.1e,2013-01-01 23:09:00,
2013-01-01 15:14:00,54.1,32.0,30.12,ENE,58,0.0,10.1,40,0.00,,---,0.00,cosweather0.1e,2013-01-01 23:14:00,
2013-01-01 15:19:00,54.0,32.0,30.12,ENE,61,0.0,10.1,41,0.00,,---,0.00,cosweather0.1e,2013-01-01 23:19:00,
2013-01-01 15:24:00,53.8,32.0,30.12,NE,40,0.0,9.2,40,0.00,,---,0.00,cosweather0.1e,2013-01-01 23:24:00,
2013-01-01 15:29:00,53.6,32.0,30.12,NE,53,0.0,8.3,41,0.00,,---,0.00,cosweather0.1e,2013-01-01 23:29:00,
2013-01-01 15:34:00,53.6,32.0,30.12,ENE,72,0.0,7.6,41,0.00,,---,0.00,cosweather0.1e,2013-01-01 23:34:00,
2013-01-01 15:39:00,53.8,32.0,30.12,NE,56,0.0,7.6,41,0.00,,---,0.00,cosweather0.1e,2013-01-01 23:39:00,
2013-01-01 15:44:00,53.8,32.0,30.12,East,81,0.0,11.0,41,0.00,,---,0.00,cosweather0.1e,2013-01-01 23:44:00,
2013-01-01 15:49:00,53.6,32.0,30.12,East,87,0.0,4.0,42,0.00,,---,0.00,cosweather0.1e,2013-01-01 23:49:00,
2013-01-01 15:54:00,53.6,32.0,30.12,ENE,58,0.0,7.6,41,0.00,,---,0.00,cosweather0.1e,2013-01-01 23:54:00,
2013-01-01 15:59:00,53.2,32.0,30.12,NE,49,0.0,7.6,42,0.00,,---,0.00,cosweather0.1e,2013-01-01 23:59:00,
2013-01-01 16:04:00,52.9,32.0,30.12,NNE,28,0.0,7.6,43,0.00,,---,0.00,cosweather0.1e,2013-01-02 00:04:00,
2013-01-01 16:09:00,52.7,32.0,30.12,ENE,62,0.0,8.3,44,0.00,,---,0.00,cosweather0.1e,2013-01-02 00:09:00,
2013-01-01 16:14:00,52.5,32.0,30.12,ENE,68,0.0,7.2,44,0.00,,---,0.00,cosweather0.1e,2013-01-02 00:14:00,
2013-01-01 16:19:00,52.5,32.0,30.12,East,85,0.0,5.8,44,0.00,,---,0.00,cosweather0.1e,2013-01-02 00:19:00,
2013-01-01 16:24:00,52.5,32.0,30.12,East,85,0.0,5.4,45,0.00,,---,0.00,cosweather0.1e,2013-01-02 00:24:00,
2013-01-01 16:29:00,52.5,32.0,30.12,North,2,0.0,3.6,45,0.00,,---,0.00,cosweather0.1e,2013-01-02 00:29:00,
2013-01-01 16:34:00,52.5,32.0,30.12,NE,35,0.0,5.4,45,0.00,,---,0.00,cosweather0.1e,2013-01-02 00:34:00,
2013-01-01 16:39:00,52.5,32.0,30.12,ENE,58,0.0,4.0,45,0.00,,---,0.00,cosweather0.1e,2013-01-02 00:39:00,
2013-01-01 16:44:00,52.3,32.0,30.12,NE,38,0.0,4.5,46,0.00,,---,0.00,cosweather0.1e,2013-01-02 00:44:00,
2013-01-01 16:49:00,52.5,32.0,30.12,NE,51,0.0,0.0,46,0.00,,---,0.00,cosweather0.1e,2013-01-02 00:49:00,
2013-01-01 16:54:00,52.9,33.8,30.12,SSE,152,0.0,0.0,46,0.00,,---,0.00,cosweather0.1e,2013-01-02 00:54:00,
2013-01-01 17:00:00,52.9,33.8,30.12,SE,126,0.0,0.0,46,0.00,,---,0.00,cosweather0.1e,2013-01-02 01:00:00,
2013-01-01 17:04:00,52.7,33.8,30.12,NE,49,0.0,2.7,46,0.00,,---,0.00,cosweather0.1e,2013-01-02 01:04:00,
2013-01-01 17:10:00,52.2,32.0,30.12,ENE,68,0.0,4.9,46,0.00,,---,0.00,cosweather0.1e,2013-01-02 01:10:00,
2013-01-01 17:15:00,51.8,32.0,30.12,NNE,32,0.0,3.1,47,0.00,,---,0.00,cosweather0.1e,2013-01-02 01:15:00,
2013-01-01 17:20:00,51.6,32.0,30.12,East,91,0.0,4.0,48,0.00,,---,0.00,cosweather0.1e,2013-01-02 01:20:00,
2013-01-01 17:25:00,51.6,32.0,30.12,NE,52,0.0,2.2,48,0.00,,---,0.00,cosweather0.1e,2013-01-02 01:25:00,
2013-01-01 17:30:00,51.4,32.0,30.12,East,93,0.0,2.7,48,0.00,,---,0.00,cosweather0.1e,2013-01-02 01:30:00,
2013-01-01 17:35:00,51.6,32.0,30.12,NE,45,0.0,2.2,48,0.00,,---,0.00,cosweather0.1e,2013-01-02 01:35:00,
2013-01-01 17:40:00,51.6,32.0,30.12,NNW,337,0.0,0.0,48,0.00,,---,0.00,cosweather0.1e,2013-01-02 01:40:00,
2013-01-01 17:45:00,51.6,32.0,30.12,West,279,0.0,0.0,48,0.00,,---,0.00,cosweather0.1e,2013-01-02 01:45:00,
2013-01-01 17:50:00,51.6,32.0,30.12,West,280,0.0,8.3,48,0.00,,---,0.00,cosweather0.1e,2013-01-02 01:50:00,
2013-01-01 17:55:00,51.6,32.0,30.12,NW,304,0.0,0.0,48,0.00,,---,0.00,cosweather0.1e,2013-01-02 01:55:00,
2013-01-01 18:00:00,51.6,32.0,30.12,NW,304,0.0,0.0,48,0.00,,---,0.00,cosweather0.1e,2013-01-02 02:00:00,
2013-01-01 18:05:00,51.6,32.0,30.12,NNW,328,0.0,2.2,48,0.00,,---,0.00,cosweather0.1e,2013-01-02 02:05:00,
2013-01-01 18:10:00,51.1,33.8,30.12,North,4,0.0,3.6,49,0.00,,---,0.00,cosweather0.1e,2013-01-02 02:10:00,
2013-01-01 18:15:00,50.9,33.8,30.12,WNW,291,0.0,3.1,49,0.00,,---,0.00,cosweather0.1e,2013-01-02 02:15:00,
2013-01-01 18:20:00,50.9,33.8,30.12,ENE,64,0.0,0.0,49,0.00,,---,0.00,cosweather0.1e,2013-01-02 02:20:00,
2013-01-01 18:25:00,50.7,32.0,30.12,NE,48,0.0,0.0,49,0.00,,---,0.00,cosweather0.1e,2013-01-02 02:25:00,
2013-01-01 18:31:00,50.7,32.0,30.12,NE,42,0.0,0.0,49,0.00,,---,0.00,cosweather0.1e,2013-01-02 02:31:00,
2013-01-01 18:36:00,50.5,32.0,30.12,West,261,0.0,4.9,49,0.00,,---,0.00,cosweather0.1e,2013-01-02 02:36:00,
2013-01-01 18:41:00,50.4,32.0,30.12,SSW,197,0.0,0.0,49,0.00,,---,0.00,cosweather0.1e,2013-01-02 02:41:00,
2013-01-01 18:46:00,50.2,32.0,30.12,SW,227,0.0,3.1,50,0.00,,---,0.00,cosweather0.1e,2013-01-02 02:46:00,
2013-01-01 18:51:00,50.0,32.0,30.12,West,270,0.0,5.4,50,0.00,,---,0.00,cosweather0.1e,2013-01-02 02:51:00,
2013-01-01 18:56:00,49.8,32.0,30.12,West,259,0.0,3.6,50,0.00,,---,0.00,cosweather0.1e,2013-01-02 02:56:00,
2013-01-01 19:01:00,49.8,32.0,30.12,WNW,286,0.0,3.1,50,0.00,,---,0.00,cosweather0.1e,2013-01-02 03:01:00,
2013-01-01 19:06:00,49.8,32.0,30.12,WNW,296,0.0,0.0,50,0.00,,---,0.00,cosweather0.1e,2013-01-02 03:06:00,
2013-01-01 19:11:00,50.0,32.0,30.12,WNW,295,0.0,0.0,50,0.00,,---,0.00,cosweather0.1e,2013-01-02 03:11:00,
2013-01-01 19:16:00,50.2,32.0,30.12,NW,314,0.0,0.0,50,0.00,,---,0.00,cosweather0.1e,2013-01-02 03:16:00,
2013-01-01 19:21:00,50.0,32.0,30.12,NW,322,0.0,0.0,50,0.00,,---,0.00,cosweather0.1e,2013-01-02 03:21:00,
2013-01-01 19:26:00,50.0,32.0,30.12,NW,323,0.0,0.0,50,0.00,,---,0.00,cosweather0.1e,2013-01-02 03:26:00,
2013-01-01 19:31:00,50.0,32.0,30.12,North,357,0.0,2.2,50,0.00,,---,0.00,cosweather0.1e,2013-01-02 03:31:00,
2013-01-01 19:36:00,49.8,32.0,30.12,North,357,0.0,0.0,50,0.00,,---,0.00,cosweather0.1e,2013-01-02 03:36:00,
2013-01-01 19:41:00,49.6,32.0,30.12,North,6,0.0,0.0,50,0.00,,---,0.00,cosweather0.1e,2013-01-02 03:41:00,
2013-01-01 19:46:00,49.5,32.0,30.16,NE,55,0.0,2.7,50,0.00,,---,0.00,cosweather0.1e,2013-01-02 03:46:00,
2013-01-01 19:51:00,49.3,32.0,30.16,NE,56,0.0,0.0,50,0.00,,---,0.00,cosweather0.1e,2013-01-02 03:51:00,
2013-01-01 19:56:00,49.5,32.0,30.16,NE,55,0.0,0.0,51,0.00,,---,0.00,cosweather0.1e,2013-01-02 03:56:00,
2013-01-01 20:01:00,49.5,32.0,30.16,NE,56,0.0,0.0,50,0.00,,---,0.00,cosweather0.1e,2013-01-02 04:01:00,
2013-01-01 20:06:00,49.5,32.0,30.16,NE,55,0.0,0.0,50,0.00,,---,0.00,cosweather0.1e,2013-01-02 04:06:00,
2013-01-01 20:11:00,49.5,32.0,30.16,NE,56,0.0,0.0,50,0.00,,---,0.00,cosweather0.1e,2013-01-02 04:11:00,
2013-01-01 20:16:00,49.3,32.0,30.16,ENE,65,0.0,3.1,50,0.00,,---,0.00,cosweather0.1e,2013-01-02 04:16:00,
2013-01-01 20:21:00,48.7,32.0,30.16,ENE,59,0.0,2.7,50,0.00,,---,0.00,cosweather0.1e,2013-01-02 04:21:00,
2013-01-01 20:26:00,48.4,32.0,30.16,NNE,19,0.0,2.7,50,0.00,,---,0.00,cosweather0.1e,2013-01-02 04:26:00,
2013-01-01 20:31:00,48.4,32.0,30.16,NNE,20,0.0,0.0,51,0.00,,---,0.00,cosweather0.1e,2013-01-02 04:31:00,
2013-01-01 20:36:00,48.2,32.0,30.16,NNE,21,0.0,2.2,51,0.00,,---,0.00,cosweather0.1e,2013-01-02 04:36:00,
2013-01-01 20:41:00,48.4,32.0,30.16,NNW,341,0.0,0.0,51,0.00,,---,0.00,cosweather0.1e,2013-01-02 04:41:00,
2013-01-01 20:46:00,48.6,32.0,30.16,NE,45,0.0,0.0,51,0.00,,---,0.00,cosweather0.1e,2013-01-02 04:46:00,
2013-01-01 20:51:00,48.4,32.0,30.16,NE,45,0.0,0.0,51,0.00,,---,0.00,cosweather0.1e,2013-01-02 04:51:00,
2013-01-01 20:56:00,48.0,32.0,30.16,SSW,203,0.0,2.2,51,0.00,,---,0.00,cosweather0.1e,2013-01-02 04:56:00,
2013-01-01 21:00:00,47.8,32.0,30.16,NNW,342,0.0,2.7,51,0.00,,---,0.00,cosweather0.1e,2013-01-02 05:00:00,
2013-01-01 21:02:00,47.8,32.0,30.16,North,353,0.0,0.0,51,0.00,,---,0.00,cosweather0.1e,2013-01-02 05:02:00,
2013-01-01 21:07:00,47.8,32.0,30.16,North,353,0.0,0.0,51,0.00,,---,0.00,cosweather0.1e,2013-01-02 05:07:00,
2013-01-01 21:12:00,47.7,32.0,30.16,North,357,0.0,0.0,51,0.00,,---,0.00,cosweather0.1e,2013-01-02 05:12:00,
2013-01-01 21:17:00,47.5,32.0,30.16,North,8,0.0,0.0,51,0.00,,---,0.00,cosweather0.1e,2013-01-02 05:17:00,
2013-01-01 21:22:00,47.5,32.0,30.16,North,8,0.0,0.0,52,0.00,,---,0.00,cosweather0.1e,2013-01-02 05:22:00,
2013-01-01 21:27:00,47.5,32.0,30.16,North,7,0.0,0.0,52,0.00,,---,0.00,cosweather0.1e,2013-01-02 05:27:00,
2013-01-01 21:32:00,47.5,32.0,30.16,North,8,0.0,0.0,52,0.00,,---,0.00,cosweather0.1e,2013-01-02 05:32:00,
2013-01-01 21:37:00,47.5,32.0,30.16,North,8,0.0,0.0,52,0.00,,---,0.00,cosweather0.1e,2013-01-02 05:37:00,
2013-01-01 21:42:00,47.7,32.0,30.16,North,8,0.0,0.0,52,0.00,,---,0.00,cosweather0.1e,2013-01-02 05:42:00,
2013-01-01 21:47:00,47.7,32.0,30.16,North,8,0.0,0.0,52,0.00,,---,0.00,cosweather0.1e,2013-01-02 05:47:00,
2013-01-01 21:52:00,47.5,32.0,30.16,North,9,0.0,0.0,52,0.00,,---,0.00,cosweather0.1e,2013-01-02 05:52:00,
2013-01-01 21:57:00,47.5,32.0,30.16,North,2,0.0,0.0,52,0.00,,---,0.00,cosweather0.1e,2013-01-02 05:57:00,
2013-01-01 22:02:00,47.5,32.0,30.16,North,2,0.0,0.0,52,0.00,,---,0.00,cosweather0.1e,2013-01-02 06:02:00,
2013-01-01 22:07:00,47.3,32.0,30.16,North,357,0.0,0.0,52,0.00,,---,0.00,cosweather0.1e,2013-01-02 06:07:00,
2013-01-01 22:12:00,47.5,32.0,30.16,NW,322,0.0,0.0,52,0.00,,---,0.00,cosweather0.1e,2013-01-02 06:12:00,
2013-01-01 22:17:00,47.5,32.0,30.16,NNW,338,0.0,0.0,52,0.00,,---,0.00,cosweather0.1e,2013-01-02 06:17:00,
2013-01-01 22:22:00,47.3,32.0,30.16,NNW,338,0.0,0.0,52,0.00,,---,0.00,cosweather0.1e,2013-01-02 06:22:00,
2013-01-01 22:27:00,47.1,32.0,30.16,NNW,340,0.0,0.0,52,0.00,,---,0.00,cosweather0.1e,2013-01-02 06:27:00,
2013-01-01 22:32:00,47.1,32.0,30.16,NNW,340,0.0,0.0,53,0.00,,---,0.00,cosweather0.1e,2013-01-02 06:32:00,
2013-01-01 22:37:00,46.9,32.0,30.16,NNW,340,0.0,0.0,53,0.00,,---,0.00,cosweather0.1e,2013-01-02 06:37:00,
2013-01-01 22:42:00,46.9,32.0,30.16,NNW,340,0.0,0.0,53,0.00,,---,0.00,cosweather0.1e,2013-01-02 06:42:00,
2013-01-01 22:47:00,46.9,32.0,30.16,NNW,340,0.0,0.0,53,0.00,,---,0.00,cosweather0.1e,2013-01-02 06:47:00,
2013-01-01 22:52:00,46.9,32.0,30.16,NNW,340,0.0,0.0,53,0.00,,---,0.00,cosweather0.1e,2013-01-02 06:52:00,
2013-01-01 22:57:00,46.8,32.0,30.16,NNW,340,0.0,0.0,53,0.00,,---,0.00,cosweather0.1e,2013-01-02 06:57:00,
2013-01-01 23:02:00,46.8,32.0,30.16,NNW,340,0.0,0.0,53,0.00,,---,0.00,cosweather0.1e,2013-01-02 07:02:00,
2013-01-01 23:07:00,46.8,32.0,30.16,NNW,340,0.0,0.0,53,0.00,,---,0.00,cosweather0.1e,2013-01-02 07:07:00,
2013-01-01 23:12:00,46.8,32.0,30.16,NNW,340,0.0,0.0,53,0.00,,---,0.00,cosweather0.1e,2013-01-02 07:12:00,
2013-01-01 23:17:00,46.6,32.0,30.16,NNW,340,0.0,0.0,53,0.00,,---,0.00,cosweather0.1e,2013-01-02 07:17:00,
2013-01-01 23:22:00,46.4,32.0,30.16,NNW,340,0.0,0.0,53,0.00,,---,0.00,cosweather0.1e,2013-01-02 07:22:00,
2013-01-01 23:27:00,46.4,32.0,30.16,NNW,340,0.0,0.0,53,0.00,,---,0.00,cosweather0.1e,2013-01-02 07:27:00,
2013-01-01 23:32:00,46.2,32.0,30.16,NNW,340,0.0,0.0,53,0.00,,---,0.00,cosweather0.1e,2013-01-02 07:32:00,
2013-01-01 23:37:00,45.7,32.0,30.16,NNE,26,0.0,0.0,53,0.00,,---,0.00,cosweather0.1e,2013-01-02 07:37:00,
2013-01-01 23:42:00,45.5,32.0,30.16,NNE,26,0.0,0.0,54,0.00,,---,0.00,cosweather0.1e,2013-01-02 07:42:00,
2013-01-01 23:47:00,45.3,32.0,30.16,NNE,26,0.0,0.0,54,0.00,,---,0.00,cosweather0.1e,2013-01-02 07:47:00,
2013-01-01 23:52:00,45.3,32.0,30.16,NNE,26,0.0,0.0,54,0.00,,---,0.00,cosweather0.1e,2013-01-02 07:52:00,
2013-01-01 23:57:00,45.5,32.0,30.16,NNE,26,0.0,0.0,55,0.00,,---,0.00,cosweather0.1e,2013-01-02 07:57:00,